Hourly Weather Ludwikowo

Today, 16 June, Wednesday

Time Temperature Precipitation Wind Pressure Humidity
00:00 +11°C° 0 mm 3 mps 759 mmHg 81%
01:00 +10°C° 0 mm 3 mps 760 mmHg 85%
02:00 +10°C° 0 mm 2 mps 760 mmHg 86%
03:00 +9°C° 0 mm 2 mps 760 mmHg 88%
04:00 +9°C° 0 mm 2 mps 760 mmHg 89%
05:00 +12°C° 0 mm 2 mps 760 mmHg 82%
06:00 +14°C° 0 mm 2 mps 760 mmHg 76%
07:00 +15°C° 0 mm 2 mps 760 mmHg 68%
08:00 +17°C° 0 mm 2 mps 760 mmHg 63%
09:00 +20°C° 0 mm 1 mps 760 mmHg 57%
10:00 +21°C° 0 mm 1 mps 760 mmHg 51%
11:00 +22°C° 0 mm 1 mps 760 mmHg 49%
12:00 +23°C° 0 mm 1 mps 760 mmHg 47%
13:00 +24°C° 0 mm 1 mps 759 mmHg 44%
14:00 +24°C° 0 mm 1 mps 759 mmHg 44%
15:00 +24°C° 0 mm 1 mps 759 mmHg 43%
16:00 +25°C° 0 mm 1 mps 759 mmHg 43%
17:00 +24°C° 0 mm 2 mps 759 mmHg 51%
18:00 +21°C° 0 mm 2 mps 759 mmHg 59%
19:00 +20°C° 0 mm 2 mps 759 mmHg 66%
20:00 +19°C° 0 mm 2 mps 759 mmHg 69%
21:00 +17°C° 0 mm 3 mps 759 mmHg 73%
22:00 +16°C° 0 mm 3 mps 759 mmHg 76%
23:00 +14°C° 0 mm 3 mps 760 mmHg 77%

Tomorrow, 17 June, Thursday

Time Temperature Precipitation Wind Pressure Humidity
00:00 +14°C° 0 mm 3 mps 760 mmHg 79%
01:00 +13°C° 0 mm 3 mps 760 mmHg 81%
02:00 +13°C° 0 mm 3 mps 760 mmHg 83%
03:00 +13°C° 0 mm 3 mps 760 mmHg 84%
04:00 +13°C° 0 mm 3 mps 759 mmHg 86%
05:00 +16°C° 0 mm 3 mps 760 mmHg 81%
06:00 +18°C° 0 mm 3 mps 760 mmHg 77%
07:00 +20°C° 0 mm 4 mps 760 mmHg 72%
08:00 +22°C° 0 mm 4 mps 760 mmHg 69%
09:00 +23°C° 0 mm 4 mps 760 mmHg 67%
10:00 +26°C° 0 mm 4 mps 760 mmHg 64%
11:00 +27°C° 0 mm 4 mps 760 mmHg 60%
12:00 +28°C° 0 mm 5 mps 760 mmHg 57%
13:00 +29°C° 0 mm 5 mps 759 mmHg 54%
14:00 +29°C° 0 mm 5 mps 759 mmHg 53%
15:00 +29°C° 0 mm 4 mps 759 mmHg 53%
16:00 +29°C° 0 mm 4 mps 759 mmHg 52%
17:00 +28°C° 0 mm 4 mps 759 mmHg 59%
18:00 +26°C° 0 mm 4 mps 759 mmHg 66%
19:00 +25°C° 0 mm 4 mps 759 mmHg 73%
20:00 +22°C° 0 mm 4 mps 759 mmHg 74%
21:00 +21°C° 0 mm 4 mps 759 mmHg 75%
22:00 +20°C° 0 mm 4 mps 760 mmHg 75%
23:00 +19°C° 0 mm 4 mps 759 mmHg 78%

Day after tomorrow, 18 June, Friday

Time Temperature Precipitation Wind Pressure Humidity
00:00 +18°C° 0 mm 3 mps 759 mmHg 80%
01:00 +17°C° 0 mm 3 mps 759 mmHg 82%
02:00 +17°C° 0 mm 3 mps 759 mmHg 84%
03:00 +17°C° 0 mm 3 mps 759 mmHg 86%
04:00 +16°C° 0 mm 3 mps 759 mmHg 88%
05:00 +18°C° 0 mm 3 mps 759 mmHg 82%
06:00 +20°C° 0 mm 4 mps 759 mmHg 75%
07:00 +22°C° 0 mm 4 mps 759 mmHg 69%
08:00 +23°C° 0 mm 4 mps 759 mmHg 65%
09:00 +26°C° 0 mm 5 mps 759 mmHg 61%
10:00 +27°C° 0 mm 5 mps 759 mmHg 57%
11:00 +28°C° 0 mm 5 mps 758 mmHg 54%
12:00 +29°C° 0 mm 5 mps 758 mmHg 51%
13:00 +30°C° 0 mm 5 mps 758 mmHg 48%
14:00 +30°C° 0 mm 5 mps 758 mmHg 48%
15:00 +30°C° 0 mm 4 mps 758 mmHg 48%
16:00 +32°C° 0 mm 4 mps 757 mmHg 48%
17:00 +29°C° 0 mm 4 mps 757 mmHg 55%
18:00 +28°C° 0 mm 3 mps 757 mmHg 63%
19:00 +27°C° 0 mm 3 mps 757 mmHg 70%
20:00 +25°C° 0 mm 3 mps 757 mmHg 74%
21:00 +24°C° 0 mm 3 mps 757 mmHg 78%
22:00 +21°C° 0 mm 3 mps 758 mmHg 82%
23:00 +21°C° 0 mm 3 mps 758 mmHg 84%

19 June, Saturday

Time Temperature Precipitation Wind Pressure Humidity
00:00 +20°C° 0 mm 3 mps 757 mmHg 86%
01:00 +20°C° 0 mm 3 mps 757 mmHg 88%
02:00 +19°C° 0 mm 3 mps 757 mmHg 89%
03:00 +19°C° 0 mm 3 mps 757 mmHg 91%
04:00 +19°C° 0 mm 3 mps 757 mmHg 92%
05:00 +20°C° 0 mm 3 mps 757 mmHg 86%
06:00 +22°C° 0 mm 4 mps 757 mmHg 80%
07:00 +25°C° 0 mm 4 mps 757 mmHg 74%
08:00 +26°C° 0 mm 4 mps 757 mmHg 69%
09:00 +28°C° 0 mm 5 mps 757 mmHg 64%
10:00 +29°C° 0 mm 5 mps 757 mmHg 59%
11:00 +30°C° 0 mm 5 mps 757 mmHg 56%
12:00 +32°C° 0 mm 4 mps 757 mmHg 53%
13:00 +33°C° 0 mm 4 mps 756 mmHg 50%
14:00 +33°C° 0 mm 4 mps 756 mmHg 49%
15:00 +33°C° 0 mm 4 mps 756 mmHg 48%
16:00 +33°C° 0 mm 3 mps 756 mmHg 48%
17:00 +31°C° 0 mm 3 mps 756 mmHg 55%
18:00 +30°C° 0 mm 3 mps 755 mmHg 62%
19:00 +28°C° 0 mm 3 mps 755 mmHg 69%
20:00 +27°C° 0 mm 3 mps 755 mmHg 71%
21:00 +26°C° 0 mm 3 mps 756 mmHg 73%
22:00 +25°C° 0 mm 3 mps 756 mmHg 76%
23:00 +24°C° 0.2 mm 2 mps 756 mmHg 79%

20 June, Sunday

Time Temperature Precipitation Wind Pressure Humidity
00:00 +23°C° 0.2 mm 2 mps 756 mmHg 83%
01:00 +22°C° 0.2 mm 1 mps 756 mmHg 87%
02:00 +21°C° 0 mm 2 mps 756 mmHg 88%
03:00 +21°C° 0 mm 2 mps 756 mmHg 89%
04:00 +21°C° 0 mm 2 mps 756 mmHg 89%
05:00 +23°C° 0.4 mm 2 mps 756 mmHg 87%
06:00 +23°C° 0.4 mm 2 mps 756 mmHg 84%
07:00 +24°C° 0.4 mm 2 mps 756 mmHg 82%
08:00 +26°C° 0 mm 3 mps 756 mmHg 75%
09:00 +27°C° 0 mm 4 mps 756 mmHg 68%
10:00 +29°C° 0 mm 4 mps 756 mmHg 61%
11:00 +30°C° 0 mm 4 mps 755 mmHg 58%
12:00 +32°C° 0 mm 4 mps 755 mmHg 55%
13:00 +32°C° 0 mm 4 mps 755 mmHg 52%
14:00 +32°C° 0 mm 4 mps 755 mmHg 52%
15:00 +32°C° 0 mm 4 mps 755 mmHg 51%
16:00 +32°C° 0 mm 4 mps 754 mmHg 51%
17:00 +30°C° 0 mm 4 mps 754 mmHg 58%
18:00 +29°C° 0 mm 3 mps 754 mmHg 64%
19:00 +27°C° 0 mm 3 mps 754 mmHg 71%
20:00 +26°C° 0 mm 3 mps 754 mmHg 73%
21:00 +25°C° 0 mm 3 mps 754 mmHg 75%
22:00 +24°C° 0 mm 3 mps 754 mmHg 77%
23:00 +22°C° 0 mm 3 mps 754 mmHg 78%

21 June, Monday

Time Temperature Precipitation Wind Pressure Humidity
00:00 +21°C° 0 mm 3 mps 754 mmHg 80%
01:00 +20°C° 0 mm 3 mps 754 mmHg 82%
02:00 +20°C° 0 mm 3 mps 754 mmHg 84%
03:00 +20°C° 0 mm 3 mps 754 mmHg 86%
04:00 +19°C° 0 mm 3 mps 754 mmHg 88%
05:00 +21°C° 0 mm 4 mps 753 mmHg 82%
06:00 +23°C° 0 mm 4 mps 753 mmHg 77%
07:00 +25°C° 0 mm 5 mps 753 mmHg 72%
08:00 +27°C° 0 mm 5 mps 753 mmHg 66%
09:00 +28°C° 0 mm 6 mps 753 mmHg 61%
10:00 +30°C° 0 mm 6 mps 753 mmHg 56%
11:00 +32°C° 0 mm 5 mps 753 mmHg 53%
12:00 +32°C° 0 mm 5 mps 753 mmHg 51%
13:00 +33°C° 0 mm 5 mps 752 mmHg 48%
14:00 +33°C° 0 mm 5 mps 752 mmHg 49%
15:00 +33°C° 0 mm 5 mps 752 mmHg 49%
16:00 +33°C° 0 mm 5 mps 752 mmHg 50%
17:00 +30°C° 0.3 mm 4 mps 752 mmHg 59%
18:00 +28°C° 0.3 mm 3 mps 752 mmHg 68%
19:00 +26°C° 0.3 mm 2 mps 752 mmHg 77%
20:00 +25°C° 2.2 mm 2 mps 752 mmHg 81%
21:00 +24°C° 2.2 mm 3 mps 752 mmHg 84%
22:00 +22°C° 2.2 mm 3 mps 752 mmHg 88%
23:00 +22°C° 1.1 mm 3 mps 752 mmHg 88%
Show more

We Need Your Consent

Meteoprog and our Service Providers may store and access personal data such as cookies, device identifiers or other similar technologies on your device and process such data to personalise content and ads, as well as provide social media features and to analyse the traffic.

  • Store and/or access information on your device

    Cookies, device identifiers or other information can be stored or accessed on your device for the purposes indicated above.

  • Personalised ads and content, ad and content measurement, audience insights, and products development

    Ads and content can be personalised based on a profile. More data can be added to better personalise ads and content. Ad and content performance can be measured. Insights about the audience who saw the ads and content can be derived. Such data can be used to develop or improve user’s experience, systems and software.

By clicking ‘I Agree’ you will allow the use of indicated cookies, device identifiers, web beacons or other similar technologies. Your settings can be changed in the browser on your device.

For certain purposes, legitimate interests may be relied on, rather than consent. You can read more about this in our Privacy and Cookie Policy.